TimeAST,TemperatureF,Dew PointF,Humidity,Sea Level PressureIn,VisibilityMPH,Wind Direction,Wind SpeedMPH,Gust SpeedMPH,PrecipitationIn,Events,Conditions,WindDirDegrees,DateUTC
12:00 AM,80.6,73.4,79,29.92,-9999.0,North,-9999.0,-,N/A,,Unknown,0,2012-12-20 04:00:00
1:00 AM,80.6,71.6,74,29.89,-9999.0,North,-9999.0,-,N/A,,Unknown,0,2012-12-20 05:00:00
2:00 AM,80,71,67,,,ENE,12.7,,,,Clear,70,2012-12-20 06:00:00
2:00 AM,80.6,71.6,74,29.89,-9999.0,North,-9999.0,-,N/A,,Unknown,0,2012-12-20 06:00:00
3:00 AM,78.8,71.6,78,29.86,-9999.0,North,-9999.0,-,N/A,,Unknown,0,2012-12-20 07:00:00
4:00 AM,78.8,73.4,83,29.86,-9999.0,North,-9999.0,-,N/A,,Unknown,0,2012-12-20 08:00:00
5:00 AM,80,72,69,,,ENE,10.4,,,,Clear,70,2012-12-20 09:00:00
5:00 AM,80.6,71.6,74,29.89,-9999.0,North,-9999.0,-,N/A,,Unknown,0,2012-12-20 09:00:00
6:00 AM,78.8,71.6,78,29.89,-9999.0,North,-9999.0,-,N/A,,Unknown,0,2012-12-20 10:00:00
7:00 AM,80.6,71.6,74,29.89,-9999.0,North,-9999.0,-,N/A,,Unknown,0,2012-12-20 11:00:00
8:00 AM,83,71,59,,6,East,10.4,,,,Clear,80,2012-12-20 12:00:00
8:00 AM,82.4,71.6,70,29.92,6.2,East,10.4,-,N/A,,Partly Cloudy,80,2012-12-20 12:00:00
9:00 AM,84.2,71.6,66,29.95,6.2,ENE,13.8,-,N/A,,Partly Cloudy,70,2012-12-20 13:00:00
10:00 AM,86.0,71.6,62,29.95,6.2,ENE,13.8,-,N/A,,Scattered Clouds,70,2012-12-20 14:00:00
11:00 AM,86,72,55,29.96,22,ENE,13.8,,,,Partly Cloudy,70,2012-12-20 15:00:00
11:00 AM,86.0,71.6,62,29.95,6.2,ENE,13.8,-,N/A,,Scattered Clouds,70,2012-12-20 15:00:00
12:00 PM,86.0,71.6,62,29.92,6.2,East,15.0,-,N/A,,Partly Cloudy,80,2012-12-20 16:00:00
1:00 PM,86.0,73.4,66,29.92,6.2,East,13.8,-,N/A,,Scattered Clouds,80,2012-12-20 17:00:00
2:00 PM,84.2,69.8,62,29.89,-9999.0,East,13.8,-,N/A,,Scattered Clouds,80,2012-12-20 18:00:00
3:00 PM,84.2,71.6,66,29.86,-9999.0,East,11.5,-,N/A,,Unknown,80,2012-12-20 19:00:00
4:00 PM,84.2,69.8,62,29.86,-9999.0,East,11.5,-,N/A,,Unknown,80,2012-12-20 20:00:00
5:00 PM,84.2,69.8,62,29.86,6.2,East,12.7,-,N/A,,Scattered Clouds,80,2012-12-20 21:00:00
6:00 PM,-9999,-9999,N/A,29.86,-9999.0,East,12.7,-,N/A,,Unknown,90,2012-12-20 22:00:00
8:00 PM,80.6,71.6,74,29.89,-9999.0,East,6.9,-,N/A,,Unknown,90,2012-12-21 00:00:00
9:00 PM,80.6,73.4,79,29.89,-9999.0,East,10.4,-,N/A,,Unknown,100,2012-12-21 01:00:00
10:00 PM,80.6,71.6,74,29.92,-9999.0,East,9.2,-,N/A,,Unknown,100,2012-12-21 02:00:00
11:00 PM,80.6,71.6,74,29.92,-9999.0,East,9.2,-,N/A,,Unknown,90,2012-12-21 03:00:00